Location: Chimay
(50.0486°N, 4.3171°E)
Time: 00:12:26
(UTC+00:00)

Cosmos 1470 Rocket - Pass Details

Date: 08 August 2020
Orbit: 603 x 634 km, 82.5° (Epoch: 23 September)

Event Time Altitude Azimuth Distance (km) Brightness Sun altitude
Exits shadow 21:19:29 19° 190° (S) 1,497 5.1 -16.5°
Maximum altitude 21:22:40 88° 277° (W) 630 3.5 -16.8°
Drops below altitude 10° 21:27:06 10° 10° (N) 1,994 6.8 -17.2°
Sets 21:29:19 0° 10° (N) 2,899 7.7 -17.4°
